Location: Unspecified
(40.7945°N, 111.1337°W)
Time: 15:36:34
(UTC-06:00)

Altair - Pass Details

Date: 28 June 2019
Orbit: 1501 x 1683 km, 47.2° (Epoch: 18 July)

Event Time Altitude Azimuth Distance (km) Brightness Sun altitude
Rises 02:31:27 0° 298° (WNW) 4,832 10.3 -24.2°
Reaches altitude 10° 02:34:42 10° 292° (WNW) 3,867 9.6 -24.1°
Maximum altitude 02:43:55 45° 224° (SW) 2,140 7.8 -23.5°
Enters shadow 02:47:50 33° 178° (S) 2,555 8.1 -23.3°
